Time,TemperatureF,DewpointF,PressureIn,WindDirection,WindDirectionDegrees,WindSpeedMPH,WindSpeedGustMPH,Humidity,HourlyPrecipIn,Conditions,Clouds,dailyrainin,SoftwareType,DateUTC
2013-05-22 00:00:00,63.0,33.4,29.97,North,0,0.0,0.0,33,0.00,CLR,OVC,0.00,WeatherDisplay:10.37,2013-05-22 05:00:00,
2013-05-22 00:05:00,63.0,33.4,29.97,North,0,0.0,0.0,33,0.00,CLR,OVC,0.00,WeatherDisplay:10.37,2013-05-22 05:05:00,
2013-05-22 00:10:00,63.0,33.4,29.97,North,0,0.0,0.0,33,0.00,CLR,OVC,0.00,WeatherDisplay:10.37,2013-05-22 05:10:00,
2013-05-22 00:15:00,62.8,34.0,30.00,North,0,0.0,0.0,34,0.00,CLR,OVC,0.00,WeatherDisplay:10.37,2013-05-22 05:15:00,
2013-05-22 00:20:00,62.6,33.8,30.00,North,0,0.0,0.0,34,0.00,CLR,OVC,0.00,WeatherDisplay:10.37,2013-05-22 05:20:00,
2013-05-22 00:25:00,62.6,33.8,30.00,North,0,0.0,0.0,34,0.00,CLR,OVC,0.00,WeatherDisplay:10.37,2013-05-22 05:25:00,
2013-05-22 00:30:00,62.4,33.7,30.00,North,0,0.0,0.0,34,0.00,CLR,OVC,0.00,WeatherDisplay:10.37,2013-05-22 05:30:00,
2013-05-22 00:35:00,62.2,33.5,30.00,North,0,0.0,0.0,34,0.00,CLR,OVC,0.00,WeatherDisplay:10.37,2013-05-22 05:35:00,
2013-05-22 00:40:00,62.1,33.3,30.00,North,0,0.0,0.0,34,0.00,CLR,OVC,0.00,WeatherDisplay:10.37,2013-05-22 05:40:00,
2013-05-22 00:45:00,62.1,34.1,29.97,North,0,0.0,0.0,35,0.00,CLR,OVC,0.00,WeatherDisplay:10.37,2013-05-22 05:45:00,
2013-05-22 00:50:00,61.9,33.9,29.97,North,0,0.0,0.0,35,0.00,CLR,OVC,0.00,WeatherDisplay:10.37,2013-05-22 05:50:00,
2013-05-22 00:55:00,61.9,33.9,29.97,North,0,0.0,0.0,35,0.00,CLR,OVC,0.00,WeatherDisplay:10.37,2013-05-22 05:55:00,
2013-05-22 01:00:00,61.7,33.7,29.97,North,0,0.0,0.0,35,0.00,CLR,OVC,0.00,WeatherDisplay:10.37,2013-05-22 06:00:00,
2013-05-22 01:05:00,61.5,33.6,29.97,North,0,0.0,0.0,35,0.00,CLR,OVC,0.00,WeatherDisplay:10.37,2013-05-22 06:05:00,
2013-05-22 01:10:00,61.5,33.6,29.97,North,0,0.0,0.0,35,0.00,CLR,OVC,0.00,WeatherDisplay:10.37,2013-05-22 06:10:00,
2013-05-22 01:15:00,61.3,34.1,29.97,North,0,0.0,0.0,36,0.00,CLR,OVC,0.00,WeatherDisplay:10.37,2013-05-22 06:15:00,
2013-05-22 01:20:00,61.3,34.1,29.97,North,0,0.0,0.0,36,0.00,CLR,OVC,0.00,WeatherDisplay:10.37,2013-05-22 06:20:00,
2013-05-22 01:25:00,61.2,34.0,29.97,North,0,0.0,0.0,36,0.00,CLR,OVC,0.00,WeatherDisplay:10.37,2013-05-22 06:25:00,
2013-05-22 01:30:00,61.2,34.0,29.97,North,0,0.0,0.0,36,0.00,CLR,OVC,0.00,WeatherDisplay:10.37,2013-05-22 06:30:00,
2013-05-22 01:35:00,61.2,34.0,29.97,North,0,0.0,0.0,36,0.00,CLR,OVC,0.00,WeatherDisplay:10.37,2013-05-22 06:35:00,
2013-05-22 01:40:00,61.2,34.7,29.97,North,0,0.0,0.0,37,0.00,CLR,OVC,0.00,WeatherDisplay:10.37,2013-05-22 06:40:00,
2013-05-22 01:45:00,61.0,34.5,30.00,North,0,0.0,0.0,37,0.00,CLR,OVC,0.00,WeatherDisplay:10.37,2013-05-22 06:45:00,
2013-05-22 01:50:00,61.0,34.5,30.00,North,0,0.0,0.0,37,0.00,CLR,OVC,0.00,WeatherDisplay:10.37,2013-05-22 06:50:00,
2013-05-22 01:55:00,61.2,34.7,30.00,North,0,0.0,0.0,37,0.00,CLR,OVC,0.00,WeatherDisplay:10.37,2013-05-22 06:55:00,
2013-05-22 02:00:00,61.2,35.3,29.97,North,0,0.0,0.0,38,0.00,CLR,OVC,0.00,WeatherDisplay:10.37,2013-05-22 07:00:00,
2013-05-22 02:05:00,61.2,35.3,29.97,North,0,0.0,0.0,38,0.00,BKN,OVC,0.00,WeatherDisplay:10.37,2013-05-22 07:05:00,
2013-05-22 02:10:00,61.2,35.3,29.97,North,0,0.0,0.0,38,0.00,BKN,OVC,0.00,WeatherDisplay:10.37,2013-05-22 07:10:00,
2013-05-22 02:15:00,61.0,35.2,29.97,North,0,0.0,0.0,38,0.00,BKN,OVC,0.00,WeatherDisplay:10.37,2013-05-22 07:15:00,
2013-05-22 02:20:00,61.0,35.2,29.97,North,0,0.0,0.0,38,0.00,BKN,OVC,0.00,WeatherDisplay:10.37,2013-05-22 07:20:00,
2013-05-22 02:25:00,60.8,35.0,29.97,North,0,0.0,0.0,38,0.00,BKN,OVC,0.00,WeatherDisplay:10.37,2013-05-22 07:25:00,
2013-05-22 02:30:00,60.8,35.0,29.94,North,0,0.0,0.0,38,0.00,BKN,OVC,0.00,WeatherDisplay:10.37,2013-05-22 07:30:00,
2013-05-22 02:35:00,60.6,35.5,29.94,North,0,0.0,0.0,39,0.00,BKN,OVC,0.00,WeatherDisplay:10.37,2013-05-22 07:35:00,
2013-05-22 02:40:00,60.4,35.3,29.94,North,0,0.0,0.0,39,0.00,BKN,OVC,0.00,WeatherDisplay:10.37,2013-05-22 07:40:00,
2013-05-22 02:45:00,60.4,35.3,29.97,North,0,0.0,0.0,39,0.00,BKN,OVC,0.00,WeatherDisplay:10.37,2013-05-22 07:45:00,
2013-05-22 02:50:00,60.3,35.8,29.97,North,0,0.0,0.0,40,0.00,BKN,OVC,0.00,WeatherDisplay:10.37,2013-05-22 07:50:00,
2013-05-22 02:55:00,60.3,35.8,29.97,North,0,0.0,0.0,40,0.00,BKN,OVC,0.00,WeatherDisplay:10.37,2013-05-22 07:55:00,
2013-05-22 03:00:00,60.1,35.7,29.94,North,0,0.0,0.0,40,0.00,BKN,OVC,0.00,WeatherDisplay:10.37,2013-05-22 08:00:00,
2013-05-22 03:05:00,59.9,35.5,29.94,North,0,0.0,0.0,40,0.00,CLR,OVC,0.00,WeatherDisplay:10.37,2013-05-22 08:05:00,
2013-05-22 03:10:00,59.9,36.1,29.94,North,0,0.0,0.0,41,0.00,CLR,OVC,0.00,WeatherDisplay:10.37,2013-05-22 08:10:00,
2013-05-22 03:15:00,59.7,36.0,29.94,North,0,0.0,0.0,41,0.00,CLR,OVC,0.00,WeatherDisplay:10.37,2013-05-22 08:15:00,
2013-05-22 03:20:00,59.5,36.4,29.94,North,0,0.0,0.0,42,0.00,CLR,OVC,0.00,WeatherDisplay:10.37,2013-05-22 08:20:00,
2013-05-22 03:25:00,59.5,36.4,29.94,North,0,0.0,0.0,42,0.00,CLR,OVC,0.00,WeatherDisplay:10.37,2013-05-22 08:25:00,
2013-05-22 03:30:00,59.5,37.0,29.94,North,0,0.0,0.0,43,0.00,CLR,OVC,0.00,WeatherDisplay:10.37,2013-05-22 08:30:00,
2013-05-22 03:35:00,59.5,37.0,29.94,North,0,0.0,0.0,43,0.00,CLR,OVC,0.00,WeatherDisplay:10.37,2013-05-22 08:35:00,
2013-05-22 03:40:00,59.7,37.8,29.94,North,0,0.0,0.0,44,0.00,CLR,OVC,0.00,WeatherDisplay:10.37,2013-05-22 08:40:00,
2013-05-22 03:45:00,59.5,37.6,29.97,North,0,0.0,0.0,44,0.00,CLR,OVC,0.00,WeatherDisplay:10.37,2013-05-22 08:45:00,
2013-05-22 03:50:00,59.5,37.6,29.97,North,0,0.0,0.0,44,0.00,CLR,OVC,0.00,WeatherDisplay:10.37,2013-05-22 08:50:00,
2013-05-22 03:55:00,59.5,38.2,29.97,North,0,0.0,0.0,45,0.00,CLR,OVC,0.00,WeatherDisplay:10.37,2013-05-22 08:55:00,
2013-05-22 04:00:00,59.5,38.2,29.94,North,0,0.0,0.0,45,0.00,CLR,OVC,0.00,WeatherDisplay:10.37,2013-05-22 09:00:00,
2013-05-22 04:05:00,59.5,38.2,29.94,North,0,0.0,0.0,45,0.00,CLR,OVC,0.00,WeatherDisplay:10.37,2013-05-22 09:05:00,
2013-05-22 04:10:00,59.4,38.0,29.94,North,0,0.0,0.0,45,0.00,CLR,OVC,0.00,WeatherDisplay:10.37,2013-05-22 09:10:00,
2013-05-22 04:15:00,59.4,38.6,29.94,North,0,0.0,0.0,46,0.00,CLR,OVC,0.00,WeatherDisplay:10.37,2013-05-22 09:15:00,
2013-05-22 04:20:00,59.4,38.6,29.94,North,0,0.0,0.0,46,0.00,CLR,OVC,0.00,WeatherDisplay:10.37,2013-05-22 09:20:00,
2013-05-22 04:25:00,59.4,38.6,29.94,North,0,0.0,0.0,46,0.00,CLR,OVC,0.00,WeatherDisplay:10.37,2013-05-22 09:25:00,
2013-05-22 04:30:00,59.5,38.7,29.97,North,0,0.0,0.0,46,0.00,CLR,OVC,0.00,WeatherDisplay:10.37,2013-05-22 09:30:00,
2013-05-22 04:35:00,59.7,39.4,29.97,North,0,0.0,0.0,47,0.00,CLR,OVC,0.00,WeatherDisplay:10.37,2013-05-22 09:35:00,
2013-05-22 04:40:00,59.7,39.4,29.97,North,0,0.0,0.0,47,0.00,CLR,OVC,0.00,WeatherDisplay:10.37,2013-05-22 09:40:00,
2013-05-22 04:45:00,59.7,39.4,29.97,North,0,0.0,0.0,47,0.00,CLR,OVC,0.00,WeatherDisplay:10.37,2013-05-22 09:45:00,
2013-05-22 04:50:00,59.9,39.6,29.97,North,0,0.0,0.0,47,0.00,CLR,OVC,0.00,WeatherDisplay:10.37,2013-05-22 09:50:00,
2013-05-22 04:55:00,59.9,40.1,29.97,North,0,0.0,0.0,48,0.00,CLR,OVC,0.00,WeatherDisplay:10.37,2013-05-22 09:55:00,
2013-05-22 05:00:00,59.9,40.1,29.97,North,0,0.0,0.0,48,0.00,CLR,OVC,0.00,WeatherDisplay:10.37,2013-05-22 10:00:00,
2013-05-22 05:05:00,59.9,40.1,29.97,North,0,0.0,0.0,48,0.00,CLR,OVC,0.00,WeatherDisplay:10.37,2013-05-22 10:05:00,
2013-05-22 05:10:00,60.1,40.3,29.97,North,0,0.0,0.0,48,0.00,CLR,OVC,0.00,WeatherDisplay:10.37,2013-05-22 10:10:00,
2013-05-22 05:15:00,60.1,40.3,29.97,North,0,0.0,0.0,48,0.00,CLR,OVC,0.00,WeatherDisplay:10.37,2013-05-22 10:15:00,
2013-05-22 05:20:00,60.1,40.8,29.97,North,0,0.0,0.0,49,0.00,CLR,OVC,0.00,WeatherDisplay:10.37,2013-05-22 10:20:00,
2013-05-22 05:25:00,60.3,41.0,29.97,North,0,0.0,0.0,49,0.00,CLR,OVC,0.00,WeatherDisplay:10.37,2013-05-22 10:25:00,
2013-05-22 05:30:00,60.3,41.0,29.97,North,0,0.0,0.0,49,0.00,CLR,OVC,0.00,WeatherDisplay:10.37,2013-05-22 10:30:00,
2013-05-22 05:35:00,60.3,41.0,29.97,North,0,0.0,0.0,49,0.00,CLR,OVC,0.00,WeatherDisplay:10.37,2013-05-22 10:35:00,
2013-05-22 05:40:00,60.3,41.0,29.97,North,0,0.0,0.0,49,0.00,CLR,OVC,0.00,WeatherDisplay:10.37,2013-05-22 10:40:00,
2013-05-22 05:45:00,60.3,41.0,29.97,North,0,0.0,0.0,49,0.00,CLR,OVC,0.00,WeatherDisplay:10.37,2013-05-22 10:45:00,
2013-05-22 05:50:00,60.3,41.0,29.97,North,0,0.0,0.0,49,0.00,CLR,OVC,0.00,WeatherDisplay:10.37,2013-05-22 10:50:00,
2013-05-22 05:55:00,60.3,41.5,29.97,North,0,0.0,0.0,50,0.00,CLR,OVC,0.00,WeatherDisplay:10.37,2013-05-22 10:55:00,
2013-05-22 06:00:00,60.3,41.5,29.97,North,0,0.0,0.0,50,0.00,CLR,OVC,0.00,WeatherDisplay:10.37,2013-05-22 11:00:00,
2013-05-22 06:05:00,60.3,41.5,29.97,North,0,0.0,0.0,50,0.00,BKN,OVC,0.00,WeatherDisplay:10.37,2013-05-22 11:05:00,
2013-05-22 06:10:00,60.3,41.5,29.97,North,0,0.0,0.0,50,0.00,BKN,OVC,0.00,WeatherDisplay:10.37,2013-05-22 11:10:00,
2013-05-22 06:15:00,60.1,41.4,29.97,North,0,0.0,0.0,50,0.00,BKN,OVC,0.00,WeatherDisplay:10.37,2013-05-22 11:15:00,
2013-05-22 06:20:00,60.1,41.4,29.97,North,0,0.0,0.0,50,0.00,BKN,OVC,0.00,WeatherDisplay:10.37,2013-05-22 11:20:00,
2013-05-22 06:25:00,60.1,41.4,29.97,North,0,0.0,0.0,50,0.00,BKN,OVC,0.00,WeatherDisplay:10.37,2013-05-22 11:25:00,
2013-05-22 06:30:00,59.9,40.7,29.97,North,0,0.0,0.0,49,0.00,BKN,OVC,0.00,WeatherDisplay:10.37,2013-05-22 11:30:00,
2013-05-22 06:35:00,59.9,40.7,29.97,North,0,0.0,0.0,49,0.00,BKN,OVC,0.00,WeatherDisplay:10.37,2013-05-22 11:35:00,
2013-05-22 06:40:00,59.9,40.7,29.97,North,0,0.0,0.0,49,0.00,BKN,OVC,0.00,WeatherDisplay:10.37,2013-05-22 11:40:00,
2013-05-22 06:45:00,59.7,40.5,29.97,North,0,0.0,0.0,49,0.00,BKN,OVC,0.00,WeatherDisplay:10.37,2013-05-22 11:45:00,
2013-05-22 06:50:00,59.7,40.5,29.97,North,0,0.0,0.0,49,0.00,BKN,OVC,0.00,WeatherDisplay:10.37,2013-05-22 11:50:00,
2013-05-22 06:55:00,59.7,40.5,29.97,North,0,0.0,0.0,49,0.00,BKN,OVC,0.00,WeatherDisplay:10.37,2013-05-22 11:55:00,
2013-05-22 07:00:00,59.7,40.5,29.94,North,0,0.0,0.0,49,0.00,BKN,OVC,0.00,WeatherDisplay:10.37,2013-05-22 12:00:00,
2013-05-22 07:05:00,59.7,40.5,29.94,North,0,0.0,0.0,49,0.00,-RA,OVC,0.00,WeatherDisplay:10.37,2013-05-22 12:05:00,
2013-05-22 07:10:00,59.5,40.3,29.94,North,0,0.0,0.0,49,0.00,-RA,OVC,0.00,WeatherDisplay:10.37,2013-05-22 12:10:00,
2013-05-22 07:15:00,59.5,40.3,29.97,North,0,0.0,0.0,49,0.00,-RA,OVC,0.00,WeatherDisplay:10.37,2013-05-22 12:15:00,
2013-05-22 07:20:00,59.5,40.3,29.97,North,0,0.0,0.0,49,0.00,-RA,OVC,0.00,WeatherDisplay:10.37,2013-05-22 12:20:00,
2013-05-22 07:25:00,59.7,40.5,29.97,North,0,0.0,0.0,49,0.00,-RA,OVC,0.00,WeatherDisplay:10.37,2013-05-22 12:25:00,
2013-05-22 07:30:00,59.7,40.5,29.97,North,0,0.0,0.0,49,0.00,-RA,OVC,0.00,WeatherDisplay:10.37,2013-05-22 12:30:00,
2013-05-22 07:35:00,59.7,40.5,29.97,North,0,0.0,0.0,49,0.00,-RA,OVC,0.00,WeatherDisplay:10.37,2013-05-22 12:35:00,
2013-05-22 07:40:00,59.7,40.5,29.97,North,0,0.0,0.0,49,0.00,-RA,OVC,0.00,WeatherDisplay:10.37,2013-05-22 12:40:00,
2013-05-22 07:45:00,59.7,40.5,29.97,North,0,0.0,0.0,49,0.00,-RA,OVC,0.00,WeatherDisplay:10.37,2013-05-22 12:45:00,
2013-05-22 07:50:00,59.9,41.2,29.97,North,0,0.0,0.0,50,0.00,-RA,OVC,0.00,WeatherDisplay:10.37,2013-05-22 12:50:00,
2013-05-22 07:55:00,60.1,41.4,29.97,North,0,0.0,0.0,50,0.00,-RA,OVC,0.00,WeatherDisplay:10.37,2013-05-22 12:55:00,
2013-05-22 08:00:00,60.8,42.0,29.97,North,0,0.0,0.0,50,0.00,-RA,OVC,0.00,WeatherDisplay:10.37,2013-05-22 13:00:00,
2013-05-22 08:05:00,61.0,42.2,29.97,North,0,0.0,0.0,50,0.00,BKN,OVC,0.00,WeatherDisplay:10.37,2013-05-22 13:05:00,
2013-05-22 08:10:00,61.2,41.8,29.97,North,0,0.0,0.0,49,0.00,BKN,OVC,0.00,WeatherDisplay:10.37,2013-05-22 13:10:00,
2013-05-22 08:15:00,61.5,41.6,29.97,North,0,0.0,0.0,48,0.00,BKN,OVC,0.00,WeatherDisplay:10.37,2013-05-22 13:15:00,
2013-05-22 08:20:00,61.7,41.8,29.97,North,0,0.0,0.0,48,0.00,BKN,OVC,0.00,WeatherDisplay:10.37,2013-05-22 13:20:00,
2013-05-22 08:25:00,61.7,41.3,29.97,North,0,0.0,0.0,47,0.00,BKN,OVC,0.00,WeatherDisplay:10.37,2013-05-22 13:25:00,
2013-05-22 08:30:00,61.9,41.4,29.97,North,0,0.0,0.0,47,0.00,BKN,OVC,0.00,WeatherDisplay:10.37,2013-05-22 13:30:00,
2013-05-22 08:35:00,61.9,40.9,29.97,North,0,0.0,0.0,46,0.00,BKN,OVC,0.00,WeatherDisplay:10.37,2013-05-22 13:35:00,
2013-05-22 08:40:00,62.2,41.2,29.97,North,0,0.0,0.0,46,0.00,BKN,OVC,0.00,WeatherDisplay:10.37,2013-05-22 13:40:00,
2013-05-22 08:45:00,62.2,40.6,29.97,North,0,0.0,0.0,45,0.00,BKN,OVC,0.00,WeatherDisplay:10.37,2013-05-22 13:45:00,
2013-05-22 08:50:00,62.4,40.8,29.97,North,0,0.0,0.0,45,0.00,BKN,OVC,0.00,WeatherDisplay:10.37,2013-05-22 13:50:00,
2013-05-22 08:55:00,62.2,40.0,29.97,North,0,0.0,0.0,44,0.00,BKN,OVC,0.00,WeatherDisplay:10.37,2013-05-22 13:55:00,
2013-05-22 09:00:00,62.2,40.0,30.00,North,0,0.0,0.0,44,0.00,BKN,OVC,0.00,WeatherDisplay:10.37,2013-05-22 14:00:00,
2013-05-22 09:05:00,62.2,38.8,30.00,North,0,0.0,0.0,42,0.00,OVC,,0.00,WeatherDisplay:10.37,2013-05-22 14:05:00,
2013-05-22 09:10:00,62.1,38.1,30.00,North,0,0.0,0.0,41,0.00,OVC,,0.00,WeatherDisplay:10.37,2013-05-22 14:10:00,
2013-05-22 09:15:00,62.1,37.4,30.00,North,0,0.0,0.0,40,0.00,OVC,,0.00,WeatherDisplay:10.37,2013-05-22 14:15:00,
2013-05-22 09:20:00,62.1,36.8,30.00,North,0,0.0,0.0,39,0.00,OVC,,0.00,WeatherDisplay:10.37,2013-05-22 14:20:00,
2013-05-22 09:25:00,62.2,36.3,30.00,North,0,0.0,0.0,38,0.00,OVC,,0.00,WeatherDisplay:10.37,2013-05-22 14:25:00,
2013-05-22 09:30:00,62.4,36.5,30.00,North,0,0.0,0.0,38,0.00,OVC,,0.00,WeatherDisplay:10.37,2013-05-22 14:30:00,
2013-05-22 09:35:00,62.6,35.9,30.00,North,0,0.0,0.0,37,0.00,OVC,,0.00,WeatherDisplay:10.37,2013-05-22 14:35:00,
2013-05-22 09:40:00,62.6,35.3,30.00,North,0,0.0,0.0,36,0.00,OVC,,0.00,WeatherDisplay:10.37,2013-05-22 14:40:00,
2013-05-22 09:45:00,62.8,35.4,30.00,North,0,0.0,0.0,36,0.00,OVC,,0.00,WeatherDisplay:10.37,2013-05-22 14:45:00,
2013-05-22 09:50:00,63.0,34.9,30.00,North,0,0.0,0.0,35,0.00,OVC,,0.00,WeatherDisplay:10.37,2013-05-22 14:50:00,
2013-05-22 09:55:00,63.1,34.3,30.00,North,0,0.0,0.0,34,0.00,OVC,,0.00,WeatherDisplay:10.37,2013-05-22 14:55:00,
2013-05-22 10:00:00,63.3,34.4,30.00,North,0,0.0,0.0,34,0.00,OVC,,0.00,WeatherDisplay:10.37,2013-05-22 15:00:00,
2013-05-22 10:05:00,63.5,32.3,30.00,North,0,0.0,0.0,31,0.00,OVC,,0.00,WeatherDisplay:10.37,2013-05-22 15:05:00,
2013-05-22 10:11:00,63.9,31.0,30.00,North,0,0.0,0.0,29,0.00,OVC,,0.00,WeatherDisplay:10.37,2013-05-22 15:11:00,
2013-05-22 10:16:00,63.9,30.1,30.00,North,0,0.0,0.0,28,0.00,OVC,,0.00,WeatherDisplay:10.37,2013-05-22 15:16:00,
2013-05-22 10:21:00,64.2,28.6,30.00,North,0,0.0,0.0,26,0.00,OVC,,0.00,WeatherDisplay:10.37,2013-05-22 15:21:00,
2013-05-22 10:26:00,64.6,28.9,30.00,North,0,0.0,0.0,26,0.00,OVC,,0.00,WeatherDisplay:10.37,2013-05-22 15:26:00,
2013-05-22 10:31:00,64.9,28.2,30.00,North,0,0.0,0.0,25,0.00,OVC,,0.00,WeatherDisplay:10.37,2013-05-22 15:31:00,
2013-05-22 10:36:00,65.5,28.7,30.00,North,0,0.0,0.0,25,0.00,OVC,,0.00,WeatherDisplay:10.37,2013-05-22 15:36:00,
2013-05-22 10:41:00,66.2,28.3,30.00,North,0,0.0,0.0,24,0.00,OVC,,0.00,WeatherDisplay:10.37,2013-05-22 15:41:00,
2013-05-22 10:46:00,66.7,27.7,30.00,North,0,0.0,0.0,23,0.00,OVC,,0.00,WeatherDisplay:10.37,2013-05-22 15:46:00,
2013-05-22 10:51:00,67.1,26.9,30.00,North,0,0.0,0.0,22,0.00,OVC,,0.00,WeatherDisplay:10.37,2013-05-22 15:51:00,
2013-05-22 10:56:00,67.6,25.1,30.00,North,0,0.0,0.0,20,0.00,OVC,,0.00,WeatherDisplay:10.37,2013-05-22 15:56:00,
2013-05-22 11:01:00,68.0,21.5,30.00,North,0,0.0,0.0,17,0.00,OVC,,0.00,WeatherDisplay:10.37,2013-05-22 16:01:00,
2013-05-22 11:06:00,68.4,21.8,30.00,North,0,0.0,0.0,17,0.00,OVC,,0.00,WeatherDisplay:10.37,2013-05-22 16:06:00,
2013-05-22 11:11:00,68.7,19.1,30.00,North,0,0.0,0.0,15,0.00,OVC,,0.00,WeatherDisplay:10.37,2013-05-22 16:11:00,
2013-05-22 11:16:00,68.7,19.1,30.00,North,0,0.0,0.0,15,0.00,OVC,,0.00,WeatherDisplay:10.37,2013-05-22 16:16:00,
2013-05-22 11:21:00,68.7,14.0,30.00,North,0,0.0,0.0,12,0.00,OVC,,0.00,WeatherDisplay:10.37,2013-05-22 16:21:00,
2013-05-22 11:26:00,68.7,14.0,30.00,North,0,0.0,0.0,12,0.00,OVC,,0.00,WeatherDisplay:10.37,2013-05-22 16:26:00,
2013-05-22 11:31:00,68.7,14.0,30.00,North,0,0.0,0.0,12,0.00,OVC,,0.00,WeatherDisplay:10.37,2013-05-22 16:31:00,
2013-05-22 11:36:00,68.9,14.1,30.00,North,0,0.0,0.0,12,0.00,OVC,,0.00,WeatherDisplay:10.37,2013-05-22 16:36:00,
2013-05-22 11:41:00,69.1,14.3,30.00,North,0,0.0,0.0,12,0.00,OVC,,0.00,WeatherDisplay:10.37,2013-05-22 16:41:00,
2013-05-22 11:46:00,69.4,14.6,30.00,North,0,0.0,0.0,12,0.00,OVC,,0.00,WeatherDisplay:10.37,2013-05-22 16:46:00,
2013-05-22 11:51:00,70.0,15.0,30.00,North,0,0.0,0.0,12,0.00,OVC,,0.00,WeatherDisplay:10.37,2013-05-22 16:51:00,
2013-05-22 11:56:00,69.8,14.8,30.00,North,0,0.0,0.0,12,0.00,OVC,,0.00,WeatherDisplay:10.37,2013-05-22 16:56:00,
2013-05-22 12:01:00,69.3,14.4,30.00,North,0,0.0,0.0,12,0.00,OVC,,0.00,WeatherDisplay:10.37,2013-05-22 17:01:00,
2013-05-22 12:06:00,68.7,14.0,30.00,North,0,0.0,0.0,12,0.00,OVC,,0.00,WeatherDisplay:10.37,2013-05-22 17:06:00,
2013-05-22 12:11:00,68.0,13.4,30.00,North,0,0.0,0.0,12,0.00,OVC,,0.00,WeatherDisplay:10.37,2013-05-22 17:11:00,
2013-05-22 12:16:00,67.6,13.1,30.00,North,0,0.0,0.0,12,0.00,OVC,,0.00,WeatherDisplay:10.37,2013-05-22 17:16:00,
2013-05-22 12:21:00,67.5,13.0,30.00,North,0,0.0,0.0,12,0.00,OVC,,0.00,WeatherDisplay:10.37,2013-05-22 17:21:00,
2013-05-22 12:26:00,67.6,13.1,30.00,North,0,0.0,0.0,12,0.00,OVC,,0.00,WeatherDisplay:10.37,2013-05-22 17:26:00,
2013-05-22 12:31:00,68.0,13.4,30.00,North,0,0.0,0.0,12,0.00,OVC,,0.00,WeatherDisplay:10.37,2013-05-22 17:31:00,
2013-05-22 12:36:00,68.4,13.7,30.00,North,0,0.0,0.0,12,0.00,OVC,,0.00,WeatherDisplay:10.37,2013-05-22 17:36:00,
2013-05-22 12:41:00,68.5,13.9,30.00,North,0,0.0,0.0,12,0.00,OVC,,0.00,WeatherDisplay:10.37,2013-05-22 17:41:00,
2013-05-22 12:46:00,68.4,13.7,30.00,North,0,0.0,0.0,12,0.00,OVC,,0.00,WeatherDisplay:10.37,2013-05-22 17:46:00,
2013-05-22 12:51:00,68.0,13.4,30.00,North,0,0.0,0.0,12,0.00,OVC,,0.00,WeatherDisplay:10.37,2013-05-22 17:51:00,
2013-05-22 12:56:00,68.0,13.4,30.00,North,0,0.0,0.0,12,0.00,OVC,,0.00,WeatherDisplay:10.37,2013-05-22 17:56:00,
2013-05-22 13:01:00,68.4,13.7,30.03,North,0,0.0,0.0,12,0.00,OVC,,0.00,WeatherDisplay:10.37,2013-05-22 18:01:00,
2013-05-22 13:06:00,68.5,13.9,30.03,North,0,0.0,0.0,12,0.00,OVC,,0.00,WeatherDisplay:10.37,2013-05-22 18:06:00,
2013-05-22 13:11:00,68.4,13.7,30.03,North,0,0.0,0.0,12,0.00,OVC,,0.00,WeatherDisplay:10.37,2013-05-22 18:11:00,
2013-05-22 13:16:00,68.2,13.6,30.03,North,0,0.0,0.0,12,0.00,OVC,,0.00,WeatherDisplay:10.37,2013-05-22 18:16:00,
2013-05-22 13:21:00,68.0,13.4,30.03,North,0,0.0,0.0,12,0.00,OVC,,0.00,WeatherDisplay:10.37,2013-05-22 18:21:00,
2013-05-22 13:26:00,67.8,13.3,30.03,North,0,0.0,0.0,12,0.00,OVC,,0.00,WeatherDisplay:10.37,2013-05-22 18:26:00,
2013-05-22 13:31:00,67.8,13.3,30.03,North,0,0.0,0.0,12,0.00,OVC,,0.00,WeatherDisplay:10.37,2013-05-22 18:31:00,
2013-05-22 13:36:00,67.8,13.3,30.03,North,0,0.0,0.0,12,0.00,OVC,,0.00,WeatherDisplay:10.37,2013-05-22 18:36:00,
2013-05-22 13:41:00,67.6,13.1,30.03,North,0,0.0,0.0,12,0.00,OVC,,0.00,WeatherDisplay:10.37,2013-05-22 18:41:00,
2013-05-22 13:46:00,67.3,12.9,30.03,North,0,0.0,0.0,12,0.00,OVC,,0.00,WeatherDisplay:10.37,2013-05-22 18:46:00,
2013-05-22 13:51:00,66.9,12.6,30.03,North,0,0.0,0.0,12,0.00,OVC,,0.00,WeatherDisplay:10.37,2013-05-22 18:51:00,
2013-05-22 13:56:00,66.6,17.4,30.03,North,0,0.0,0.0,15,0.00,OVC,,0.00,WeatherDisplay:10.37,2013-05-22 18:56:00,
2013-05-22 14:01:00,66.4,17.3,30.03,North,0,0.0,0.0,15,0.00,OVC,,0.00,WeatherDisplay:10.37,2013-05-22 19:01:00,
2013-05-22 14:06:00,66.2,17.1,30.03,North,0,0.0,0.0,15,0.00,OVC,,0.00,WeatherDisplay:10.37,2013-05-22 19:06:00,
2013-05-22 14:11:00,66.2,17.1,30.03,North,0,0.0,0.0,15,0.00,OVC,,0.00,WeatherDisplay:10.37,2013-05-22 19:11:00,
2013-05-22 14:16:00,66.4,17.3,30.03,North,0,0.0,0.0,15,0.00,OVC,,0.00,WeatherDisplay:10.37,2013-05-22 19:16:00,
2013-05-22 14:21:00,66.2,20.0,30.03,North,0,0.0,0.0,17,0.00,OVC,,0.00,WeatherDisplay:10.37,2013-05-22 19:21:00,
2013-05-22 14:26:00,66.2,17.1,30.03,North,0,0.0,0.0,15,0.00,OVC,,0.00,WeatherDisplay:10.37,2013-05-22 19:26:00,
2013-05-22 14:31:00,66.2,17.1,30.03,North,0,0.0,0.0,15,0.00,OVC,,0.00,WeatherDisplay:10.37,2013-05-22 19:31:00,
2013-05-22 14:36:00,66.2,17.1,30.03,North,0,0.0,0.0,15,0.00,OVC,,0.00,WeatherDisplay:10.37,2013-05-22 19:36:00,
2013-05-22 14:41:00,66.4,20.2,30.03,North,0,0.0,0.0,17,0.00,OVC,,0.00,WeatherDisplay:10.37,2013-05-22 19:41:00,
2013-05-22 14:46:00,66.6,20.3,30.03,North,0,0.0,0.0,17,0.00,OVC,,0.00,WeatherDisplay:10.37,2013-05-22 19:46:00,
2013-05-22 14:51:00,67.1,20.8,30.03,North,0,0.0,0.0,17,0.00,OVC,,0.00,WeatherDisplay:10.37,2013-05-22 19:51:00,
2013-05-22 14:56:00,67.5,21.1,30.03,North,0,0.0,0.0,17,0.00,OVC,,0.00,WeatherDisplay:10.37,2013-05-22 19:56:00,
2013-05-22 15:01:00,67.5,18.1,30.03,North,0,0.0,0.0,15,0.00,OVC,,0.00,WeatherDisplay:10.37,2013-05-22 20:01:00,
2013-05-22 15:06:00,67.5,18.1,30.03,North,0,0.0,0.0,15,0.00,OVC,,0.00,WeatherDisplay:10.37,2013-05-22 20:06:00,
2013-05-22 15:11:00,67.5,18.1,30.03,North,0,0.0,0.0,15,0.00,OVC,,0.00,WeatherDisplay:10.37,2013-05-22 20:11:00,
2013-05-22 15:16:00,67.6,21.2,30.03,North,0,0.0,0.0,17,0.00,OVC,,0.00,WeatherDisplay:10.37,2013-05-22 20:16:00,
2013-05-22 15:21:00,67.6,18.3,30.03,North,0,0.0,0.0,15,0.00,OVC,,0.00,WeatherDisplay:10.37,2013-05-22 20:21:00,
2013-05-22 15:26:00,67.5,18.1,30.03,North,0,0.0,0.0,15,0.00,OVC,,0.00,WeatherDisplay:10.37,2013-05-22 20:26:00,
2013-05-22 15:31:00,67.5,18.1,30.06,North,0,0.0,0.0,15,0.00,OVC,,0.00,WeatherDisplay:10.37,2013-05-22 20:31:00,
2013-05-22 15:36:00,67.6,18.3,30.06,North,0,0.0,0.0,15,0.00,OVC,,0.00,WeatherDisplay:10.37,2013-05-22 20:36:00,
2013-05-22 15:41:00,67.6,18.3,30.06,North,0,0.0,0.0,15,0.00,OVC,,0.00,WeatherDisplay:10.37,2013-05-22 20:41:00,
2013-05-22 15:46:00,67.5,18.1,30.06,North,0,0.0,0.0,15,0.00,OVC,,0.00,WeatherDisplay:10.37,2013-05-22 20:46:00,
2013-05-22 15:51:00,67.3,18.0,30.06,North,0,0.0,0.0,15,0.00,OVC,,0.00,WeatherDisplay:10.37,2013-05-22 20:51:00,
2013-05-22 15:56:00,66.9,17.7,30.06,North,0,0.0,0.0,15,0.00,OVC,,0.00,WeatherDisplay:10.37,2013-05-22 20:56:00,
2013-05-22 16:01:00,66.6,17.4,30.06,North,0,0.0,0.0,15,0.00,OVC,,0.00,WeatherDisplay:10.37,2013-05-22 21:01:00,
2013-05-22 16:06:00,66.4,20.2,30.06,North,0,0.0,0.0,17,0.00,OVC,,0.00,WeatherDisplay:10.37,2013-05-22 21:06:00,
2013-05-22 16:11:00,66.2,20.0,30.06,North,0,0.0,0.0,17,0.00,OVC,,0.00,WeatherDisplay:10.37,2013-05-22 21:11:00,
2013-05-22 16:16:00,66.4,24.1,30.06,North,0,0.0,0.0,20,0.00,OVC,,0.00,WeatherDisplay:10.37,2013-05-22 21:16:00,
2013-05-22 16:21:00,66.4,24.1,30.06,North,0,0.0,0.0,20,0.00,OVC,,0.00,WeatherDisplay:10.37,2013-05-22 21:21:00,
2013-05-22 16:26:00,66.4,24.1,30.06,North,0,0.0,0.0,20,0.00,OVC,,0.00,WeatherDisplay:10.37,2013-05-22 21:26:00,
2013-05-22 16:31:00,66.4,24.1,30.06,North,0,0.0,0.0,20,0.00,OVC,,0.00,WeatherDisplay:10.37,2013-05-22 21:31:00,
2013-05-22 16:36:00,66.2,20.0,30.06,North,0,0.0,0.0,17,0.00,OVC,,0.00,WeatherDisplay:10.37,2013-05-22 21:36:00,
2013-05-22 16:41:00,66.0,23.8,30.06,North,0,0.0,0.0,20,0.00,OVC,,0.00,WeatherDisplay:10.37,2013-05-22 21:41:00,
2013-05-22 16:46:00,65.7,21.0,30.06,North,0,0.0,0.0,18,0.00,OVC,,0.00,WeatherDisplay:10.37,2013-05-22 21:46:00,
2013-05-22 16:51:00,65.1,20.5,30.06,North,0,0.0,0.0,18,0.00,OVC,,0.00,WeatherDisplay:10.37,2013-05-22 21:51:00,
2013-05-22 16:56:00,64.6,22.6,30.06,North,0,0.0,0.0,20,0.00,OVC,,0.00,WeatherDisplay:10.37,2013-05-22 21:56:00,
2013-05-22 17:01:00,64.2,25.6,30.06,North,0,0.0,0.0,23,0.00,OVC,,0.00,WeatherDisplay:10.37,2013-05-22 22:01:00,
2013-05-22 17:06:00,64.0,26.5,30.06,North,0,0.0,0.0,24,0.00,OVC,,0.00,WeatherDisplay:10.37,2013-05-22 22:06:00,
2013-05-22 17:11:00,64.0,26.5,30.06,North,0,0.0,0.0,24,0.00,OVC,,0.00,WeatherDisplay:10.37,2013-05-22 22:11:00,
2013-05-22 17:16:00,64.0,26.5,30.06,North,0,0.0,0.0,24,0.00,OVC,,0.00,WeatherDisplay:10.37,2013-05-22 22:16:00,
2013-05-22 17:21:00,64.0,26.5,30.06,North,0,0.0,0.0,24,0.00,OVC,,0.00,WeatherDisplay:10.37,2013-05-22 22:21:00,
2013-05-22 17:26:00,64.0,26.5,30.06,North,0,0.0,0.0,24,0.00,OVC,,0.00,WeatherDisplay:10.37,2013-05-22 22:26:00,
2013-05-22 17:31:00,64.0,26.5,30.06,North,0,0.0,0.0,24,0.00,OVC,,0.00,WeatherDisplay:10.37,2013-05-22 22:31:00,
2013-05-22 17:36:00,63.9,26.3,30.06,North,0,0.0,0.0,24,0.00,OVC,,0.00,WeatherDisplay:10.37,2013-05-22 22:36:00,
2013-05-22 17:41:00,63.5,26.0,30.06,North,0,0.0,0.0,24,0.00,OVC,,0.00,WeatherDisplay:10.37,2013-05-22 22:41:00,
2013-05-22 17:46:00,63.1,25.7,30.06,North,0,0.0,0.0,24,0.00,OVC,,0.00,WeatherDisplay:10.37,2013-05-22 22:46:00,
2013-05-22 17:51:00,63.1,25.7,30.06,North,0,0.0,0.0,24,0.00,OVC,,0.00,WeatherDisplay:10.37,2013-05-22 22:51:00,
2013-05-22 17:56:00,63.3,26.9,30.06,North,0,0.0,0.0,25,0.00,OVC,,0.00,WeatherDisplay:10.37,2013-05-22 22:56:00,
2013-05-22 18:01:00,63.7,27.2,30.06,North,0,0.0,0.0,25,0.00,OVC,,0.00,WeatherDisplay:10.37,2013-05-22 23:01:00,
2013-05-22 18:06:00,64.2,27.6,30.06,North,0,0.0,0.0,25,0.00,OVC,,0.00,WeatherDisplay:10.37,2013-05-22 23:06:00,
2013-05-22 18:11:00,64.4,27.8,30.06,North,0,0.0,0.0,25,0.00,OVC,,0.00,WeatherDisplay:10.37,2013-05-22 23:11:00,
2013-05-22 18:16:00,64.4,26.8,30.06,North,0,0.0,0.0,24,0.00,OVC,,0.00,WeatherDisplay:10.37,2013-05-22 23:16:00,
2013-05-22 18:21:00,64.2,26.6,30.06,North,0,0.0,0.0,24,0.00,OVC,,0.00,WeatherDisplay:10.37,2013-05-22 23:21:00,
2013-05-22 18:26:00,64.0,26.5,30.06,North,0,0.0,0.0,24,0.00,OVC,,0.00,WeatherDisplay:10.37,2013-05-22 23:26:00,
2013-05-22 18:31:00,63.9,27.3,30.06,North,0,0.0,0.0,25,0.00,OVC,,0.00,WeatherDisplay:10.37,2013-05-22 23:31:00,
2013-05-22 18:36:00,63.9,27.3,30.06,North,0,0.0,0.0,25,0.00,OVC,,0.00,WeatherDisplay:10.37,2013-05-22 23:36:00,
2013-05-22 18:41:00,63.7,27.2,30.06,North,0,0.0,0.0,25,0.00,OVC,,0.00,WeatherDisplay:10.37,2013-05-22 23:41:00,
2013-05-22 18:46:00,63.5,27.0,30.06,North,0,0.0,0.0,25,0.00,OVC,,0.00,WeatherDisplay:10.37,2013-05-22 23:46:00,
2013-05-22 18:51:00,63.3,26.9,30.06,North,0,0.0,0.0,25,0.00,OVC,,0.00,WeatherDisplay:10.37,2013-05-22 23:51:00,
2013-05-22 18:56:00,63.3,26.9,30.06,North,0,0.0,0.0,25,0.00,OVC,,0.00,WeatherDisplay:10.37,2013-05-22 23:56:00,
2013-05-22 19:01:00,63.3,27.8,30.09,North,0,0.0,0.0,26,0.00,OVC,,0.00,WeatherDisplay:10.37,2013-05-23 00:01:00,
2013-05-22 19:06:00,63.1,27.7,30.09,North,0,0.0,0.0,26,0.00,OVC,,0.00,WeatherDisplay:10.37,2013-05-23 00:06:00,
2013-05-22 19:11:00,63.1,27.7,30.09,North,0,0.0,0.0,26,0.00,OVC,,0.00,WeatherDisplay:10.37,2013-05-23 00:11:00,
2013-05-22 19:16:00,63.1,27.7,30.09,North,0,0.0,0.0,26,0.00,OVC,,0.00,WeatherDisplay:10.37,2013-05-23 00:16:00,
2013-05-22 19:21:00,63.0,27.5,30.09,North,0,0.0,0.0,26,0.00,OVC,,0.00,WeatherDisplay:10.37,2013-05-23 00:21:00,
2013-05-22 19:26:00,63.0,27.5,30.09,North,0,0.0,0.0,26,0.00,OVC,,0.00,WeatherDisplay:10.37,2013-05-23 00:26:00,
2013-05-22 19:31:00,63.0,28.4,30.09,North,0,0.0,0.0,27,0.00,OVC,,0.00,WeatherDisplay:10.37,2013-05-23 00:31:00,
2013-05-22 19:36:00,62.8,28.3,30.09,North,0,0.0,0.0,27,0.00,OVC,,0.00,WeatherDisplay:10.37,2013-05-23 00:36:00,
2013-05-22 19:41:00,62.8,28.3,30.09,North,0,0.0,0.0,27,0.00,OVC,,0.00,WeatherDisplay:10.37,2013-05-23 00:41:00,
2013-05-22 19:46:00,62.8,28.3,30.09,North,0,0.0,0.0,27,0.00,OVC,,0.00,WeatherDisplay:10.37,2013-05-23 00:46:00,
2013-05-22 19:51:00,62.6,28.1,30.09,North,0,0.0,0.0,27,0.00,OVC,,0.00,WeatherDisplay:10.37,2013-05-23 00:51:00,
2013-05-22 19:56:00,62.4,28.0,30.09,North,0,0.0,0.0,27,0.00,OVC,,0.00,WeatherDisplay:10.37,2013-05-23 00:56:00,
2013-05-22 20:02:00,62.2,27.8,30.09,North,0,0.0,0.0,27,0.00,OVC,,0.00,WeatherDisplay:10.37,2013-05-23 01:02:00,
2013-05-22 20:07:00,62.1,28.5,30.09,North,0,0.0,0.0,28,0.00,OVC,,0.00,WeatherDisplay:10.37,2013-05-23 01:07:00,
2013-05-22 20:12:00,61.9,29.2,30.09,North,0,0.0,0.0,29,0.00,OVC,,0.00,WeatherDisplay:10.37,2013-05-23 01:12:00,
2013-05-22 20:17:00,61.7,29.1,30.09,North,0,0.0,0.0,29,0.00,OVC,,0.00,WeatherDisplay:10.37,2013-05-23 01:17:00,
2013-05-22 20:22:00,61.5,29.8,30.09,North,0,0.0,0.0,30,0.00,OVC,,0.00,WeatherDisplay:10.37,2013-05-23 01:22:00,
2013-05-22 20:27:00,61.3,30.4,30.09,North,0,0.0,0.0,31,0.00,OVC,,0.00,WeatherDisplay:10.37,2013-05-23 01:27:00,
2013-05-22 20:32:00,61.2,30.3,30.09,North,0,0.0,0.0,31,0.00,OVC,,0.00,WeatherDisplay:10.37,2013-05-23 01:32:00,
2013-05-22 20:37:00,61.2,31.0,30.09,North,0,0.0,0.0,32,0.00,OVC,,0.00,WeatherDisplay:10.37,2013-05-23 01:37:00,
2013-05-22 20:42:00,61.0,31.6,30.09,North,0,0.0,0.0,33,0.00,OVC,,0.00,WeatherDisplay:10.37,2013-05-23 01:42:00,
2013-05-22 20:47:00,61.0,31.6,30.09,North,0,0.0,0.0,33,0.00,OVC,,0.00,WeatherDisplay:10.37,2013-05-23 01:47:00,
2013-05-22 20:52:00,61.0,32.4,30.09,North,0,0.0,0.0,34,0.00,OVC,,0.00,WeatherDisplay:10.37,2013-05-23 01:52:00,
2013-05-22 20:57:00,60.8,32.2,30.09,North,0,0.0,0.0,34,0.00,OVC,,0.00,WeatherDisplay:10.37,2013-05-23 01:57:00,
2013-05-22 21:02:00,60.8,32.2,30.09,North,0,0.0,0.0,34,0.00,OVC,,0.00,WeatherDisplay:10.37,2013-05-23 02:02:00,
2013-05-22 21:07:00,60.8,32.2,30.09,North,0,0.0,0.0,34,0.00,OVC,,0.00,WeatherDisplay:10.37,2013-05-23 02:07:00,
2013-05-22 21:12:00,60.6,32.8,30.09,North,0,0.0,0.0,35,0.00,OVC,,0.00,WeatherDisplay:10.37,2013-05-23 02:12:00,
2013-05-22 21:17:00,60.6,32.8,30.09,North,0,0.0,0.0,35,0.00,OVC,,0.00,WeatherDisplay:10.37,2013-05-23 02:17:00,
2013-05-22 21:22:00,60.4,32.6,30.09,North,0,0.0,0.0,35,0.00,OVC,,0.00,WeatherDisplay:10.37,2013-05-23 02:22:00,
2013-05-22 21:27:00,60.4,32.6,30.09,North,0,0.0,0.0,35,0.00,OVC,,0.00,WeatherDisplay:10.37,2013-05-23 02:27:00,
2013-05-22 21:32:00,60.4,32.6,30.09,North,0,0.0,0.0,35,0.00,OVC,,0.00,WeatherDisplay:10.37,2013-05-23 02:32:00,
2013-05-22 21:37:00,60.4,32.6,30.09,North,0,0.0,0.0,35,0.00,OVC,,0.00,WeatherDisplay:10.37,2013-05-23 02:37:00,
2013-05-22 21:42:00,60.3,33.2,30.09,North,0,0.0,0.0,36,0.00,OVC,,0.00,WeatherDisplay:10.37,2013-05-23 02:42:00,
2013-05-22 21:47:00,60.3,33.2,30.09,North,0,0.0,0.0,36,0.00,OVC,,0.00,WeatherDisplay:10.37,2013-05-23 02:47:00,
2013-05-22 21:52:00,60.3,33.2,30.09,North,0,0.0,0.0,36,0.00,OVC,,0.00,WeatherDisplay:10.37,2013-05-23 02:52:00,
2013-05-22 21:57:00,60.3,33.2,30.09,North,0,0.0,0.0,36,0.00,OVC,,0.00,WeatherDisplay:10.37,2013-05-23 02:57:00,
2013-05-22 22:02:00,60.3,33.2,30.09,North,0,0.0,0.0,36,0.00,OVC,,0.00,WeatherDisplay:10.37,2013-05-23 03:02:00,
2013-05-22 22:07:00,60.4,33.3,30.09,North,0,0.0,0.0,36,0.00,OVC,,0.00,WeatherDisplay:10.37,2013-05-23 03:07:00,
2013-05-22 22:12:00,60.3,33.2,30.09,North,0,0.0,0.0,36,0.00,OVC,,0.00,WeatherDisplay:10.37,2013-05-23 03:12:00,
2013-05-22 22:17:00,60.3,33.2,30.09,North,0,0.0,0.0,36,0.00,OVC,,0.00,WeatherDisplay:10.37,2013-05-23 03:17:00,
2013-05-22 22:22:00,60.3,33.2,30.09,North,0,0.0,0.0,36,0.00,OVC,,0.00,WeatherDisplay:10.37,2013-05-23 03:22:00,
2013-05-22 22:27:00,60.3,33.2,30.09,North,0,0.0,0.0,36,0.00,OVC,,0.00,WeatherDisplay:10.37,2013-05-23 03:27:00,
2013-05-22 22:32:00,60.3,33.2,30.12,North,0,0.0,0.0,36,0.00,OVC,,0.00,WeatherDisplay:10.37,2013-05-23 03:32:00,
2013-05-22 22:37:00,60.1,33.0,30.12,North,0,0.0,0.0,36,0.00,OVC,,0.00,WeatherDisplay:10.37,2013-05-23 03:37:00,
2013-05-22 22:42:00,60.1,33.0,30.12,North,0,0.0,0.0,36,0.00,OVC,,0.00,WeatherDisplay:10.37,2013-05-23 03:42:00,
2013-05-22 22:47:00,60.1,33.0,30.09,North,0,0.0,0.0,36,0.00,OVC,,0.00,WeatherDisplay:10.37,2013-05-23 03:47:00,
2013-05-22 22:52:00,60.1,33.0,30.09,North,0,0.0,0.0,36,0.00,OVC,,0.00,WeatherDisplay:10.37,2013-05-23 03:52:00,
2013-05-22 22:57:00,60.1,33.0,30.09,North,0,0.0,0.0,36,0.00,OVC,,0.00,WeatherDisplay:10.37,2013-05-23 03:57:00,
2013-05-22 23:01:00,60.1,33.0,30.12,North,0,0.0,0.0,36,0.00,OVC,,0.00,WeatherDisplay:10.37,2013-05-23 04:01:00,
2013-05-22 23:02:00,60.1,33.0,30.12,North,0,0.0,0.0,36,0.00,OVC,,0.00,WeatherDisplay:10.37,2013-05-23 04:02:00,
2013-05-22 23:06:00,60.1,33.0,30.12,North,0,0.0,0.0,36,0.00,OVC,,0.00,WeatherDisplay:10.37,2013-05-23 04:06:00,
2013-05-22 23:11:00,59.9,32.9,30.12,North,0,0.0,0.0,36,0.00,OVC,,0.00,WeatherDisplay:10.37,2013-05-23 04:11:00,
2013-05-22 23:16:00,59.9,32.2,30.12,North,0,0.0,0.0,35,0.00,OVC,,0.00,WeatherDisplay:10.37,2013-05-23 04:16:00,
2013-05-22 23:21:00,59.7,32.0,30.12,North,0,0.0,0.0,35,0.00,OVC,,0.00,WeatherDisplay:10.37,2013-05-23 04:21:00,
2013-05-22 23:26:00,59.7,32.0,30.12,North,0,0.0,0.0,35,0.00,OVC,,0.00,WeatherDisplay:10.37,2013-05-23 04:26:00,
2013-05-22 23:31:00,59.7,32.0,30.09,North,0,0.0,0.0,35,0.00,BKN,OVC,0.00,WeatherDisplay:10.37,2013-05-23 04:31:00,
2013-05-22 23:36:00,59.7,32.0,30.09,North,0,0.0,0.0,35,0.00,BKN,OVC,0.00,WeatherDisplay:10.37,2013-05-23 04:36:00,
2013-05-22 23:41:00,59.7,32.0,30.09,North,0,0.0,0.0,35,0.00,BKN,OVC,0.00,WeatherDisplay:10.37,2013-05-23 04:41:00,
2013-05-22 23:46:00,59.5,31.8,30.09,North,0,0.0,0.0,35,0.00,BKN,OVC,0.00,WeatherDisplay:10.37,2013-05-23 04:46:00,
2013-05-22 23:51:00,59.4,31.7,30.09,North,0,0.0,0.0,35,0.00,BKN,OVC,0.00,WeatherDisplay:10.37,2013-05-23 04:51:00,
2013-05-22 23:56:00,59.4,31.7,30.09,North,0,0.0,0.0,35,0.00,BKN,OVC,0.00,WeatherDisplay:10.37,2013-05-23 04:56:00,